Location: Sungai Jaoh
(2.9167°N, 113.9167°E)
Time: 05:53:18
(UTC+00:00)

Cosmos 773 Rocket - Pass Details

Date: 30 November 2020
Orbit: 746 x 776 km, 74.1° (Epoch: 25 January)

Event Time Altitude Azimuth Distance (km) Brightness Sun altitude
Exits shadow 21:19:38 15° 322° (NW) 1,984 5.6 -13.5°
Maximum altitude 21:23:35 40° 258° (WSW) 1,115 4.5 -12.6°
Drops below altitude 10° 21:28:24 10° 190° (S) 2,279 6.6 -11.5°
Sets 21:30:53 0° 182° (S) 3,201 7.5 -10.9°
